Flag for Netherlands Weather past 2 weeks in Haarlem, Netherlands

Now
52 °F

Passing clouds.


Feels Like: 51 °F
Forecast: 51 / 56 °F
Wind: 5 mph from Northwest

Location: Amsterdam Schiphol Airport

Current Time: May 28, 2015 at 10:40:34 PM

Latest Report: May 28, 2015 at 9:55 PM


Visibility: N/A

Pressure: 29.92 "Hg

Humidity: 72%

Dew point: 43 °F

Location of HaarlemLocation

Historic Weather in Haarlem — Graph

°F

Haarlem temperature yesterday

Maximum temperature yesterday: 64 °F (at 2:55 PM)
Minimum temperature yesterday: 46 °F (at 3:25 AM)
Average temperature yesterday: 56 °F

Past Weeks' High & Low Weather Summary

 TemperatureHumidityPressure
High66 °F (May 22, 1:55 PM)100% (May 16, 11:25 AM)30.33 "Hg (May 16, 11:25 AM)
Low41 °F (May 24, 2:25 AM)30% (May 24, 5:25 PM)29.56 "Hg (May 19, 4:25 AM)
Average53 °F73%30.06 "Hg
* Reported May 13 9:25 PM — May 28 9:25 PM, Haarlem, Weather by CustomWeather, © 2015

Note: Actual official high and low records may vary slightly from our data, if they occured in-between our weather recording intervals... More about our weather records

Advertising

Haarlem weather history for previous 24 hours

 ConditionsComfort  
Time TempWeatherWind HumidityBarometerVisibility
9:25 PM
Thu, May 28
54 °FPassing clouds.6 mph72%29.92 "HgN/A
8:55 PM55 °FPassing clouds.7 mph63%29.92 "HgN/A
8:25 PM55 °FPassing clouds.10 mph63%29.92 "HgN/A
7:55 PM57 °FPassing clouds.9 mph59%29.92 "HgN/A
7:25 PM57 °FPassing clouds.10 mph55%29.92 "HgN/A
6:55 PM57 °FPassing clouds.13 mph59%29.92 "HgN/A
6:25 PM57 °FPassing clouds.13 mph63%29.92 "HgN/A
5:55 PM57 °FPassing clouds.15 mph63%29.92 "HgN/A
5:25 PM59 °FPassing clouds.16 mph55%29.92 "HgN/A
4:55 PM57 °FPassing clouds.16 mph63%29.92 "HgN/A
4:25 PM59 °FScattered clouds.16 mph63%29.92 "HgN/A
3:55 PM59 °FScattered clouds.16 mph63%29.92 "HgN/A
3:25 PM59 °FScattered clouds.18 mph59%29.92 "HgN/A
2:55 PM57 °FPassing clouds.18 mph67%29.92 "HgN/A
2:25 PM61 °FScattered clouds.18 mph63%29.92 "HgN/A
1:55 PM59 °FPassing clouds.20 mph63%29.89 "HgN/A
1:25 PM59 °FScattered clouds.21 mph68%29.89 "HgN/A
12:55 PM57 °FScattered clouds.20 mph72%29.89 "HgN/A
12:25 PM59 °FScattered clouds.18 mph77%29.89 "HgN/A
11:55 AM57 °FSprinkles. Broken clouds.21 mph72%29.89 "HgN/A
11:25 AM57 °FScattered clouds.20 mph72%29.89 "HgN/A
10:55 AM57 °FLight rain. Scattered clouds.17 mph77%29.89 "HgN/A
10:25 AM57 °FBroken clouds.17 mph72%29.89 "HgN/A
9:55 AM55 °FDrizzle. Partly sunny.18 mph77%29.89 "HgN/A
9:25 AM55 °FDrizzle. Partly sunny.17 mph77%29.89 "HgN/A
8:55 AM55 °FBroken clouds.17 mph77%29.89 "HgN/A
8:25 AM55 °FScattered clouds.14 mph72%29.89 "HgN/A
7:55 AM55 °FScattered clouds.17 mph77%29.89 "HgN/A
7:25 AM57 °FScattered clouds.16 mph72%29.89 "HgN/A
6:55 AM55 °FScattered clouds.16 mph82%29.89 "HgN/A
6:25 AM55 °FPassing clouds.18 mph82%29.89 "HgN/A
5:55 AM55 °FPassing clouds.16 mph82%29.89 "HgN/A
5:25 AM57 °FPassing clouds.17 mph72%29.89 "HgN/A
4:55 AM57 °FPassing clouds.17 mph72%29.89 "HgN/A
4:25 AM57 °FPassing clouds.17 mph72%29.89 "HgN/A
3:55 AM57 °FPassing clouds.18 mph72%29.89 "HgN/A
3:25 AM57 °FPassing clouds.21 mph72%29.89 "HgN/A
2:55 AM57 °FPassing clouds.16 mph72%29.92 "HgN/A
2:25 AM57 °FPassing clouds.14 mph72%29.92 "HgN/A
1:55 AM57 °FPassing clouds.13 mph72%29.95 "HgN/A
1:25 AM57 °FPassing clouds.13 mph72%29.95 "HgN/A
12:55 AM55 °FPassing clouds.12 mph77%29.98 "HgN/A
12:25 AM54 °FClear.9 mph77%29.98 "Hg10 mi
11:55 PM
Wed, May 27
54 °FClear.8 mph77%30.01 "Hg10 mi
11:25 PM54 °FClear.7 mph77%30.01 "Hg10 mi
10:55 PM54 °FClear.7 mph77%30.04 "Hg10 mi
10:25 PM54 °FPassing clouds.8 mph77%30.04 "HgN/A
Weather by CustomWeather, © 2015

See weather overviewHow to use our weather pages